{"data":{"norad_id":66953,"epoch":"2026-05-25T02:23:26.924352Z","epoch_age_seconds":67198,"freshness":"FRESH","line1":"1 66953U 25287A   26145.09961718  .00000046  00000+0  73968-4 0  9998","line2":"2 66953  86.4915 290.1707 0001579 108.3864 251.7442 13.24410667 22285","mean_motion":13.24410667,"eccentricity":0.0001579,"inclination_deg":86.4915,"raan_deg":290.1707,"arg_perigee_deg":108.3864,"mean_anomaly_deg":251.7442,"bstar":7.3968e-5,"rev_number":2228,"period_min":108.72760510619,"perigee_km":1166.7281297158,"apogee_km":1169.1111744065,"semimajor_km":7546.0566520612,"source":"CELESTRAK","updated_at":"2026-05-25T13:38:06.604761Z"}}